Wind_Speed
4 4 4 3 3 2 2 2 2 2 2 2 1 1 0 1 3 4 4 4 3 3 2 2 2 2 2 2 2 2 2 2 2 2 2 2 2 3 3 4 4 4 4 4 3 3 3 4 4 5 6 7 8 9 10 10 10 10 9 9 9 9 9 9 9 8 8 7 6
4 4 4 4 3 2 2 2 2 2 2 2 2 2 2 2 3 3 3 3 2 2 1 1 1 1 1 1 2 2 2 2 2 2 3 3 3 3 4 4 4 4 4 3 2 1 1 2 2 3 3 4 5 6 7 8 8 8 8 8 9 9 9 9 8 8 8 7 7
4 4 4 4 3 2 2 2 2 2 1 1 2 2 2 2 2 3 2 2 1 1 1 1 1 0 1 1 2 3 3 3 3 3 3 3 4 4 4 4 5 5 5 4 3 3 2 3 3 3 3 3 3 4 5 6 7 7 7 7 8 9 9 9 9 9 9 8 8
5 4 4 4 3 3 2 2 2 2 2 2 1 1 2 2 2 2 1 1 1 1 2 2 1 1 1 2 3 3 3 3 3 3 4 4 5 5 5 5 5 5 5 5 5 5 4 4 5 5 5 4 4 4 5 5 6 7 7 7 8 8 9 10 10 11 10 10 10
6 5 4 4 4 3 3 3 3 3 3 3 3 2 2 2 2 1 1 1 1 2 3 3 3 2 1 2 3 3 4 3 3 4 4 5 6 6 6 6 6 5 5 5 5 5 5 5 5 6 6 6 5 5 5 5 6 7 8 8 8 9 10 11 11 12 12 12 12
7 6 5 5 5 4 3 3 3 3 3 3 3 3 3 3 3 3 2 2 3 3 4 4 4 3 2 2 3 3 4 4 3 4 4 5 6 6 6 6 6 6 5 5 5 5 5 4 5 5 6 6 6 5 5 5 5 6 7 8 9 10 11 11 12 13 13 13 13
7 6 6 5 5 4 4 4 4 3 3 3 4 4 4 4 4 4 4 4 4 4 5 5 5 4 4 3 3 3 3 3 3 3 4 5 5 6 5 5 5 6 5 5 4 4 4 4 4 4 5 5 5 5 4 4 4 5 7 8 10 11 11 12 13 13 13 13 13
8 7 7 6 6 5 4 4 4 3 3 3 4 4 4 5 5 5 5 5 5 5 6 6 6 5 5 4 4 3 3 3 3 3 3 3 4 4 4 4 4 4 5 5 4 4 3 3 3 3 3 4 4 4 4 4 4 5 6 8 9 11 12 12 12 12 13 13 13
8 8 8 7 7 6 5 5 4 4 3 4 4 4 4 5 5 5 5 5 6 6 6 6 6 6 6 6 5 5 5 4 3 3 3 3 3 4 4 3 3 3 3 4 4 3 3 3 3 3 3 3 4 5 5 5 5 6 7 8 9 10 11 11 11 11 11 12 12
8 8 8 8 8 7 6 5 5 4 4 4 4 4 4 4 4 5 5 6 6 6 6 6 6 6 6 6 7 7 6 5 5 4 4 4 4 4 3 3 3 2 2 3 3 3 3 2 2 3 3 4 4 5 6 6 7 8 8 8 9 9 9 9 9 9 9 10 10
9 9 8 8 8 8 7 6 5 5 4 4 4 4 4 4 4 5 6 6 6 6 6 6 7 7 7 7 7 8 7 7 6 5 5 5 4 4 4 3 3 3 2 3 3 3 3 3 3 3 3 4 4 5 5 6 7 8 9 10 9 9 9 8 8 8 8 9 9
10 9 9 8 8 8 7 7 6 5 5 5 5 5 4 4 4 5 5 5 5 6 6 7 7 8 8 8 8 8 8 8 7 6 6 6 5 5 4 4 4 3 3 3 3 3 3 3 2 2 3 3 4 4 5 5 7 8 9 10 9 8 7 7 8 8 8 8 8
11 10 9 9 8 8 8 7 7 6 6 6 5 5 5 5 5 5 4 4 5 6 7 7 8 8 8 9 9 9 9 9 8 7 6 6 6 5 5 5 4 4 4 4 4 4 3 3 3 2 2 3 3 4 4 5 6 8 9 9 8 7 6 6 7 7 7 7 7
11 11 10 9 9 9 8 8 7 7 6 6 6 5 5 5 5 4 4 4 5 6 6 7 7 8 8 9 9 9 9 9 9 8 7 7 6 6 5 5 5 5 5 5 5 4 4 4 3 3 2 3 3 4 4 5 6 7 8 8 6 6 6 6 6 6 7 7 7
11 11 10 10 10 9 9 8 8 7 7 7 6 6 5 5 5 4 4 4 5 5 5 6 7 7 8 8 9 9 9 10 10 9 8 8 7 7 6 6 6 6 6 6 6 5 5 5 4 4 3 3 3 3 4 5 6 7 7 7 6 6 6 7 7 7 7 7 7
12 11 11 10 10 10 9 9 8 8 8 7 7 6 6 5 5 5 5 5 5 4 4 5 6 7 7 8 8 9 9 10 10 9 9 8 8 8 7 7 7 7 6 6 6 6 6 6 5 5 4 4 3 3 4 5 6 7 7 7 6 6 7 7 7 7 7 7 7
13 12 11 11 11 10 10 10 9 9 8 8 8 7 6 6 5 5 5 5 5 4 4 5 5 5 6 6 7 8 9 9 9 9 9 8 8 8 8 8 7 7 7 7 6 6 6 6 7 6 6 5 4 4 4 5 5 6 7 7 7 7 7 7 8 8 8 8 8
14 13 13 13 12 11 11 11 10 10 10 9 8 7 7 6 6 6 6 5 5 4 4 5 5 5 5 6 6 7 8 9 9 9 9 9 9 9 9 8 8 8 8 7 6 6 6 7 7 7 6 6 5 5 6 6 6 6 7 7 7 7 7 8 8 8 9 9 9
15 15 14 14 13 13 12 12 12 11 10 10 9 8 7 7 7 7 6 6 5 4 4 4 4 5 5 6 6 6 7 8 9 9 10 10 10 9 9 9 9 9 9 8 7 7 7 7 7 7 7 7 6 6 7 7 7 7 7 7 7 7 8 8 8 9 10 10 9
17 16 16 15 15 14 13 13 12 11 11 10 9 9 8 8 8 7 7 6 5 4 4 4 4 4 5 6 6 6 7 7 8 9 10 10 10 9 9 9 9 9 9 9 8 8 8 8 8 7 7 7 7 7 7 7 8 8 8 8 8 8 8 8 9 9 10 10 9
18 18 17 16 15 14 14 13 13 12 11 10 10 9 9 9 9 8 8 6 5 4 3 3 3 4 5 5 6 7 7 7 8 9 9 9 9 10 10 10 10 10 10 10 9 9 9 8 8 8 8 8 7 7 7 7 8 8 8 8 8 8 8 8 8 9 10 10 9
19 19 18 17 16 15 15 14 13 12 12 11 10 10 10 10 9 9 8 7 6 4 3 3 3 4 4 5 6 7 7 8 8 9 9 9 9 10 10 10 10 10 10 10 10 9 9 9 8 8 8 8 8 8 7 7 8 8 8 8 8 7 7 7 8 8 9 9 8
20 19 18 17 16 16 15 15 14 13 13 12 12 11 10 10 10 10 9 8 6 5 4 4 4 4 4 5 6 7 7 8 8 9 9 9 9 9 10 10 10 10 10 10 10 9 9 9 9 9 8 8 8 8 8 7 7 8 8 8 7 7 7 7 7 8 8 8 8
20 19 19 18 17 16 16 16 16 16 14 13 12 11 11 10 10 10 9 9 7 6 5 4 4 4 5 5 6 7 7 8 8 9 9 9 9 9 10 10 10 10 10 11 10 9 9 9 9 9 9 9 8 8 8 8 8 8 8 8 7 7 7 7 7 8 8 8 7
20 20 19 19 18 18 17 17 18 17 15 14 13 12 11 11 10 10 10 9 8 7 6 5 5 5 5 5 6 7 7 7 8 8 9 9 9 10 10 10 10 10 11 11 10 9 9 9 8 8 9 9 9 9 8 8 8 8 8 8 7 7 7 8 8 8 8 8 8
21 20 20 20 19 19 18 18 18 17 16 14 13 13 12 11 11 10 10 10 9 8 7 7 6 6 5 5 6 6 7 7 7 8 8 9 9 10 10 10 9 10 11 11 10 9 8 8 8 9 9 9 9 9 8 8 8 8 8 8 8 8 8 9 9 9 9 9 8
21 21 20 20 20 20 20 19 17 17 16 15 14 14 13 12 11 11 11 11 10 9 8 8 7 6 6 6 6 6 6 7 7 8 8 9 9 10 10 10 10 10 10 10 9 8 8 8 8 9 9 9 9 9 8 8 8 8 9 9 9 9 9 10 10 10 10 9 9
22 22 21 20 20 20 20 19 17 17 16 16 16 15 14 13 12 12 12 12 11 10 9 8 8 7 7 6 6 6 6 6 7 7 8 9 9 10 10 10 9 9 9 9 9 8 8 8 8 9 9 9 9 9 9 8 8 9 9 9 9 9 10 10 11 10 10 10 9
23 22 22 21 21 20 20 19 18 18 17 16 17 17 16 15 14 13 12 12 12 11 10 9 8 8 7 7 7 6 6 6 7 7 8 9 9 10 10 10 9 9 9 10 9 9 8 8 8 8 8 9 9 9 9 9 9 9 9 9 9 10 10 10 10 10 10 10 10
24 23 22 22 22 21 20 20 20 19 17 16 18 19 18 17 16 15 14 13 13 12 11 10 9 8 8 8 7 7 7 6 6 7 8 9 9 10 10 10 10 10 10 10 10 9 9 9 9 8 8 8 9 9 9 9 9 9 9 9 10 10 10 10 10 10 11 11 11
25 24 23 23 22 22 21 21 20 19 17 17 18 19 19 18 17 16 15 14 14 13 12 11 10 9 9 8 8 8 7 7 6 7 7 8 9 9 10 10 11 11 11 11 10 9 9 9 9 8 7 7 8 9 10 9 9 9 9 10 10 10 10 10 10 10 11 11 11
25 24 24 23 23 22 22 22 21 19 18 18 19 19 19 18 18 17 16 14 14 13 12 12 11 10 9 9 9 9 8 7 7 7 7 7 8 9 9 10 11 12 12 11 10 9 9 10 9 8 7 7 8 9 9 9 9 9 9 9 10 10 10 9 9 10 10 10 10
25 24 24 23 23 22 22 22 21 20 20 20 20 20 19 18 17 17 16 15 14 14 14 13 12 11 10 10 10 10 9 8 8 7 6 6 6 7 8 9 11 12 13 12 10 9 9 10 9 9 8 7 7 8 8 8 8 9 9 9 10 10 10 10 9 9 9 9 9
25 24 24 24 23 22 22 22 22 21 21 20 20 20 19 19 18 17 16 16 15 15 15 14 12 11 10 10 10 10 10 9 8 7 7 6 6 7 7 8 10 12 14 12 10 9 9 10 10 9 8 7 8 8 8 7 8 8 9 9 10 11 11 12 12 11 11 10 9
25 24 24 24 23 22 22 22 22 22 21 21 20 20 20 19 19 18 17 17 16 16 16 15 13 12 11 10 10 10 9 9 8 8 8 7 7 7 7 8 10 12 14 12 10 8 9 11 11 9 8 8 8 8 8 8 8 9 9 10 10 11 11 12 13 13 13 12 11
25 25 24 24 23 22 22 22 22 22 22 21 21 21 21 20 20 19 18 17 17 16 16 16 15 13 11 11 10 10 9 9 8 8 8 8 8 7 7 8 10 12 13 12 10 8 8 12 11 10 9 8 9 9 9 10 10 10 11 11 11 11 12 12 12 13 13 13 12
25 25 24 24 23 23 23 23 23 23 23 22 22 21 22 22 21 19 18 17 16 16 17 17 16 14 13 12 11 11 10 9 8 8 8 8 9 8 8 8 10 12 13 12 11 8 8 13 13 11 10 9 10 11 11 11 12 12 12 11 11 11 11 12 12 12 12 12 12
25 25 25 24 24 24 24 24 24 24 24 23 23 22 22 22 21 19 19 18 17 16 17 17 16 15 14 13 12 12 11 10 9 8 8 8 9 9 9 9 10 12 13 13 11 9 9 13 14 12 10 10 11 12 13 13 12 12 12 11 10 10 10 11 12 12 12 11 12
26 26 25 25 25 25 24 25 26 26 25 24 23 23 22 22 20 20 20 19 18 17 17 17 16 16 15 14 13 12 12 12 11 10 9 9 9 10 10 9 10 12 13 13 12 9 9 13 15 13 10 10 12 13 13 13 12 12 12 11 10 9 9 10 12 12 12 12 12
26 26 26 25 25 25 25 26 27 27 26 25 23 23 22 22 21 20 20 19 18 17 17 16 16 16 15 14 13 13 13 13 12 11 10 10 10 11 11 11 11 12 13 13 13 10 10 13 15 14 11 11 12 13 13 12 12 12 12 12 11 11 11 11 12 12 12 12 12
26 26 26 26 26 26 26 26 27 26 26 25 24 23 23 22 21 20 20 19 18 17 16 15 15 15 15 14 14 13 13 13 13 12 12 11 11 11 12 12 12 12 13 14 14 12 11 13 16 16 14 12 12 13 13 12 11 11 12 12 13 13 13 13 13 13 13 12 13
Wind_Direction
115 113 114 117 131 147 166 189 218 230 227 220 217 221 335 17 24 32 35 30 24 26 43 59 59 46 24 3 352 342 330 312 291 272 254 237 226 216 207 198 188 175 162 151 147 152 161 168 174 180 184 186 189 190 189 186 184 184 184 179 173 169 168 166 164 164 166 170 179
137 128 127 123 126 143 170 190 210 231 247 251 260 276 307 337 4 25 36 32 14 3 6 26 44 41 16 344 325 313 303 298 281 268 258 246 233 222 214 206 205 204 200 188 178 193 210 208 208 206 202 201 203 204 202 197 192 190 188 186 181 178 177 175 173 172 172 172 177
164 148 140 132 124 132 158 175 185 192 207 237 260 280 301 323 349 14 28 31 5 325 309 301 305 331 332 325 314 304 292 281 267 259 251 243 232 224 217 214 215 220 224 227 232 243 261 269 268 263 255 245 235 228 222 213 204 198 194 191 189 188 187 185 184 183 182 181 182
182 166 152 143 137 140 149 158 165 171 176 183 200 233 265 293 325 350 8 13 267 248 251 252 255 265 301 319 317 309 295 276 260 251 244 236 229 224 221 219 220 225 231 236 243 249 259 272 278 279 278 273 265 254 242 229 219 210 204 199 195 194 193 193 192 191 189 187 188
191 182 170 163 157 153 152 157 160 165 170 175 183 198 214 236 259 284 289 265 226 220 225 233 238 252 284 309 316 315 307 291 268 253 243 233 227 225 225 226 227 229 232 237 244 249 256 267 277 281 282 281 276 269 258 242 229 220 214 208 203 200 198 197 196 195 193 191 191
193 188 182 177 171 164 160 162 162 163 167 172 181 193 205 213 226 241 250 243 218 213 217 224 230 240 260 288 308 316 316 309 290 266 247 236 230 229 231 235 236 237 239 241 246 252 260 269 280 284 282 280 276 271 262 247 234 225 219 211 206 203 200 197 195 194 192 192 191
192 190 187 185 181 177 174 173 170 167 168 175 182 190 199 205 213 222 227 226 213 209 212 217 224 232 244 264 285 307 317 316 306 288 266 249 241 238 239 243 247 247 246 246 247 252 255 260 272 279 280 276 271 264 252 239 231 224 216 207 202 199 195 192 190 189 188 189 191
191 191 191 190 188 186 184 182 178 176 178 182 187 193 198 202 206 212 216 216 210 205 206 212 220 229 240 251 264 279 295 308 309 303 288 268 256 250 247 247 252 254 250 245 242 242 244 247 253 264 272 273 262 247 231 216 213 213 209 203 198 193 188 185 183 183 186 188 191
189 191 192 192 189 187 185 184 181 181 183 187 192 196 200 201 204 207 208 206 203 203 207 213 221 231 239 248 257 264 271 280 288 294 290 280 266 257 254 250 251 253 249 241 232 228 230 235 239 244 252 257 252 242 230 215 208 204 203 201 195 189 184 180 179 182 186 190 191
184 187 188 188 186 185 183 181 181 181 183 186 190 194 199 201 202 202 202 201 201 204 209 216 225 234 241 248 254 258 263 272 282 290 290 282 273 262 256 250 244 242 241 233 221 215 212 215 225 234 244 251 250 246 238 226 214 208 206 204 197 191 187 187 187 188 190 192 192
182 183 183 183 183 182 180 178 179 181 182 183 184 186 190 197 200 203 205 205 206 209 214 223 229 236 242 248 252 255 259 264 272 281 287 284 275 265 255 247 240 236 233 228 216 207 202 205 214 231 243 249 251 249 242 231 220 215 213 209 201 195 194 199 201 200 197 195 193
183 182 181 181 180 180 178 177 180 181 181 184 183 183 183 190 200 208 212 213 213 217 222 228 233 238 242 247 250 253 256 259 264 272 280 282 275 266 257 249 243 239 234 227 216 206 201 201 208 223 237 243 245 245 238 229 223 221 218 214 205 200 202 209 213 212 207 200 194
185 182 180 181 179 179 179 180 181 182 183 185 186 186 187 193 203 210 212 213 220 226 231 234 237 240 243 246 248 250 252 255 259 264 270 274 272 267 259 252 245 240 236 227 218 209 203 204 209 219 230 236 239 240 235 228 225 224 223 219 212 210 216 224 223 219 213 205 196
188 185 183 181 180 180 180 181 183 183 184 187 190 190 193 199 207 209 208 210 221 231 237 240 241 242 244 245 246 247 248 251 254 257 261 264 265 262 257 252 246 242 237 228 219 210 207 209 213 219 225 232 238 242 240 234 228 226 225 222 218 220 229 236 231 223 216 210 199
192 189 187 184 183 183 183 183 183 184 185 186 190 192 195 199 206 207 203 207 221 229 235 238 241 243 244 244 245 245 246 247 249 253 256 257 256 253 251 249 245 242 236 230 221 214 212 215 216 220 224 232 236 240 241 239 235 231 228 224 223 228 235 238 232 225 218 211 202
194 193 192 190 189 188 187 185 184 184 184 185 187 190 193 193 199 202 203 206 215 221 224 229 237 241 243 243 244 244 245 246 247 249 252 254 252 249 246 244 242 240 237 232 224 220 219 221 221 221 222 226 227 228 232 237 239 238 235 232 231 234 238 237 233 226 218 211 204
195 195 195 195 195 194 191 188 186 185 184 183 185 187 190 192 197 202 204 206 209 213 218 224 230 236 240 242 243 243 243 244 245 247 249 251 249 246 242 239 238 236 234 232 228 227 227 228 228 225 223 222 225 223 222 225 231 236 238 238 239 239 240 238 233 226 217 211 206
197 196 197 197 198 198 196 192 190 187 185 184 185 185 186 190 196 200 204 207 209 213 220 227 230 231 233 235 237 238 239 240 241 243 245 246 245 241 237 235 233 231 230 228 227 229 231 232 232 231 227 225 227 227 226 224 226 229 232 235 237 240 241 240 235 226 217 211 208
198 198 198 198 199 200 199 196 193 190 187 186 187 187 186 187 191 195 200 205 209 216 225 232 235 233 230 229 229 231 233 235 236 238 239 241 239 235 233 233 232 230 228 225 224 225 229 231 233 232 230 229 230 232 233 232 231 231 230 229 233 238 243 244 239 229 219 212 208
199 199 198 199 199 199 199 198 195 192 189 188 189 190 190 190 189 192 196 203 210 220 232 239 240 236 233 230 227 226 228 231 233 234 235 235 233 230 229 230 231 230 227 225 223 224 226 228 231 232 231 230 232 235 237 238 239 237 235 233 236 241 246 248 244 235 225 216 210
200 199 199 199 198 199 199 198 197 194 192 191 192 192 192 193 192 192 195 202 210 223 238 248 247 242 237 234 229 225 226 229 230 230 230 229 228 226 224 225 227 228 226 223 223 223 224 226 228 230 230 230 231 234 237 240 243 243 241 239 241 245 249 251 247 239 230 221 213
200 200 199 198 198 198 198 198 197 195 194 194 194 194 194 194 194 195 198 203 210 220 235 249 255 251 241 234 230 226 226 228 229 227 225 224 225 225 223 221 223 224 223 222 222 222 223 223 224 226 228 230 232 233 236 240 243 245 246 245 245 246 247 247 245 238 230 222 213
200 199 198 198 198 197 197 197 197 196 196 196 196 195 195 197 198 199 202 207 212 218 228 242 255 253 243 234 229 227 227 228 229 227 223 220 221 223 222 220 220 221 221 219 219 220 222 222 223 224 225 229 232 235 236 238 240 243 246 247 246 244 241 238 234 230 224 217 209
198 198 198 198 197 196 196 197 197 197 198 198 197 196 196 198 201 203 206 209 215 221 227 237 251 255 249 236 231 227 225 226 227 227 224 219 217 218 219 217 217 217 217 217 216 217 220 222 223 224 226 228 231 233 235 236 237 240 243 244 242 238 232 226 222 218 214 208 200
197 197 197 197 196 196 196 197 198 199 199 198 198 197 196 197 200 205 208 211 216 223 232 240 252 259 254 241 234 229 225 222 223 224 223 219 215 214 212 212 213 215 215 213 213 215 219 223 225 226 227 228 230 232 234 235 235 236 236 236 234 229 223 218 214 209 204 198 192
196 196 197 197 196 196 196 197 199 199 199 199 199 198 198 198 200 205 210 212 216 223 233 242 252 258 255 245 235 230 225 220 219 219 219 217 213 210 208 207 209 212 211 208 209 212 218 223 227 229 229 229 231 233 236 236 234 232 230 228 224 219 215 211 208 204 198 192 189
196 196 197 197 197 197 197 198 199 200 201 201 201 201 201 200 201 205 210 215 217 223 232 240 247 252 252 245 235 228 223 220 218 217 215 213 210 207 205 205 208 209 207 203 204 207 212 216 222 227 228 229 230 233 235 236 235 231 227 222 217 212 209 207 204 201 196 192 189
195 195 196 196 197 198 198 198 199 200 202 203 203 203 203 203 203 205 209 215 219 223 227 232 240 245 246 240 232 226 223 220 219 217 214 211 208 205 204 205 207 208 205 201 200 203 208 213 216 221 225 225 227 228 230 231 232 230 225 219 214 209 206 205 202 198 194 191 187
196 195 195 196 197 198 198 198 199 201 202 203 205 205 206 206 207 207 209 213 217 218 219 223 230 235 236 232 228 225 223 221 220 218 215 211 209 207 206 206 209 210 205 199 195 198 206 213 213 218 222 221 221 222 224 225 226 225 222 217 212 208 205 202 198 195 191 187 184
196 195 195 196 197 198 198 199 200 200 201 203 205 207 208 209 210 210 210 211 214 215 217 219 222 225 227 228 226 223 220 221 223 222 218 213 211 211 211 210 211 210 206 198 194 195 202 210 211 216 221 221 217 216 216 217 219 219 217 214 211 207 203 199 196 192 189 185 181
197 195 195 196 197 198 199 200 200 200 200 202 205 207 209 210 211 212 211 212 213 214 216 218 219 222 225 227 225 221 217 217 221 225 223 218 214 214 215 214 214 210 204 195 194 196 201 205 207 211 217 218 212 208 208 210 213 214 214 213 210 207 202 198 194 190 186 182 179
197 196 196 196 197 198 200 200 199 199 200 202 204 206 208 211 212 213 213 213 213 214 215 216 218 220 222 225 225 222 219 218 220 225 227 226 221 219 218 217 214 206 197 191 193 198 200 199 201 208 215 214 204 199 200 203 207 210 211 211 208 204 199 194 189 186 183 179 177
197 196 196 196 197 198 199 199 199 199 200 202 204 206 208 211 213 214 214 214 214 213 213 214 216 217 219 220 222 222 221 221 221 223 225 227 227 224 220 216 210 198 190 188 193 200 201 197 197 203 210 207 197 192 192 196 201 204 205 203 201 197 193 187 182 179 177 175 173
196 196 196 196 197 197 198 198 199 199 200 201 203 206 208 210 212 214 214 214 214 214 214 214 214 215 216 216 218 220 221 223 223 223 223 223 225 222 217 209 202 192 185 185 193 201 201 196 194 198 203 200 191 185 185 187 191 193 193 192 191 190 188 185 181 177 175 172 170
196 195 195 196 196 196 197 198 199 199 199 200 203 206 208 210 212 213 214 214 214 215 215 215 215 215 216 217 218 219 220 222 224 224 224 222 221 218 213 205 198 190 184 183 190 198 199 193 190 193 198 195 186 180 178 177 179 180 180 179 180 182 183 184 182 180 178 175 171
196 195 194 195 195 195 196 197 198 198 199 200 202 205 207 210 211 213 213 214 214 214 214 215 215 215 215 216 218 219 219 220 222 225 226 224 220 216 211 205 198 191 186 183 186 193 195 189 188 193 198 194 185 178 174 171 169 169 170 172 174 176 178 179 178 177 176 174 171
198 196 195 194 194 195 196 197 197 198 199 200 202 204 206 209 211 212 212 211 211 211 213 214 213 213 213 214 216 218 219 219 220 223 226 227 222 217 212 208 202 196 191 186 187 191 191 186 188 197 203 195 185 178 173 169 167 167 169 172 176 178 180 179 175 171 169 170 170
199 197 195 194 194 195 196 197 198 199 199 201 202 204 206 208 209 210 210 209 208 208 210 211 211 211 212 213 215 217 218 220 221 223 225 227 224 220 216 212 207 202 198 192 190 192 192 189 192 202 208 197 186 179 174 171 169 170 173 176 179 182 183 181 175 169 165 165 167
200 198 197 196 195 195 196 198 200 200 201 201 202 203 205 206 207 208 208 208 208 208 208 209 209 210 211 212 213 215 218 220 221 223 225 226 225 223 219 216 211 208 205 199 194 195 197 193 193 200 208 199 188 181 177 173 172 173 176 177 177 176 176 175 171 167 164 164 166
201 199 198 197 197 197 198 200 201 202 202 201 201 202 204 205 205 206 207 208 208 208 208 208 208 208 208 209 210 213 217 220 222 223 224 226 226 225 223 220 217 215 211 207 202 202 202 197 195 199 204 199 190 184 180 176 174 174 175 175 173 170 168 168 167 167 167 167 168
202 200 200 199 199 199 200 201 202 203 202 202 202 202 203 204 204 205 205 206 206 206 207 207 207 206 206 207 209 211 214 218 221 222 224 225 226 227 226 224 222 220 216 213 210 210 207 200 197 199 201 196 189 185 182 178 175 175 175 175 173 171 170 170 171 172 174 174 172
Height
781 781 781 781 781 782 782 782 783 783 783 784 784 784 785 785 785 786 785 785 785 784 784 784 784 784 784 784 784 784 784 784 785 785 785 785 786 786 786 787 787 788 788 788 788 788 788 789 789 789 790 791 791 791 791 791 791 790 790 789 789 788 788 789 789 790 791 792 794
780 781 781 781 781 781 781 782 782 782 783 783 784 784 784 785 785 786 786 786 786 785 785 785 784 784 785 785 785 784 784 784 785 785 785 785 785 786 786 787 787 787 787 788 788 788 789 789 789 790 790 791 791 791 791 791 790 790 789 789 788 788 788 788 789 789 790 792 793
780 780 780 781 781 781 781 781 782 782 782 783 783 784 784 784 785 785 786 786 786 786 786 785 785 785 785 785 785 785 785 785 785 785 785 785 785 786 786 786 787 787 787 787 787 788 788 789 789 790 790 791 791 791 791 790 790 789 789 788 788 788 788 788 789 789 790 791 793
780 780 780 780 781 781 781 781 781 781 782 782 783 783 784 784 785 785 785 786 786 786 786 786 785 785 785 785 785 785 785 785 785 785 785 785 785 786 786 786 786 786 786 786 787 787 788 788 789 789 789 790 790 790 790 790 790 789 789 788 788 788 788 788 789 789 790 791 793
779 779 780 780 780 781 781 781 781 781 782 782 782 783 783 784 784 785 785 785 786 786 786 786 786 786 786 786 786 786 786 785 785 785 785 785 785 785 786 786 786 786 786 786 786 786 787 788 788 788 789 789 789 789 789 789 789 789 788 788 788 788 788 788 789 789 790 791 792
779 779 779 780 780 780 780 781 781 781 781 782 782 783 783 784 784 785 785 785 785 786 786 786 786 786 786 786 786 786 786 786 786 785 785 785 785 785 785 785 785 785 785 785 785 786 786 787 787 788 788 788 788 788 789 789 789 789 788 788 788 788 788 789 789 789 789 790 792
779 779 779 779 780 780 780 780 781 781 781 782 782 782 783 783 784 784 785 785 785 785 785 786 786 786 786 786 786 786 786 786 786 786 785 785 785 785 785 785 785 785 785 785 785 785 786 786 787 787 787 788 788 788 788 789 789 789 788 788 788 788 788 789 789 789 789 790 791
778 779 779 779 779 780 780 780 780 781 781 781 782 782 782 783 783 784 784 784 784 785 785 785 785 786 786 786 786 786 786 786 786 786 786 786 786 785 785 785 785 785 785 784 785 785 785 786 787 787 787 788 788 788 789 789 789 789 789 788 788 788 789 789 789 789 789 790 790
778 778 779 779 779 779 780 780 780 781 781 781 781 782 782 782 783 783 784 784 784 784 784 784 785 785 785 785 785 785 785 786 786 786 786 786 785 785 785 785 785 785 785 784 784 785 785 786 786 787 787 788 788 788 789 789 789 789 789 789 789 789 789 789 789 789 789 790 790
777 778 778 778 779 779 779 780 780 780 781 781 781 782 782 782 783 783 783 783 783 784 784 784 784 785 785 785 785 785 785 785 785 785 785 785 785 785 785 785 785 784 784 784 784 784 785 786 786 787 787 787 788 788 789 789 789 790 790 790 790 790 790 790 790 790 789 789 790
777 777 778 778 778 779 779 779 780 780 780 781 781 781 782 782 783 783 783 783 783 783 783 784 784 784 784 785 785 785 785 785 785 785 785 785 785 785 784 784 784 784 784 784 784 784 785 785 786 786 787 787 788 788 789 789 789 790 790 790 790 790 790 790 790 790 790 789 790
776 777 777 778 778 778 779 779 779 780 780 780 781 781 782 782 782 782 782 782 783 783 783 783 784 784 784 784 784 784 784 784 784 784 784 784 784 784 784 784 784 784 784 784 784 784 784 785 785 786 786 787 788 788 789 789 789 790 790 790 790 790 790 790 790 790 790 789 789
776 776 777 777 778 778 778 779 779 779 779 780 780 781 781 782 782 782 782 782 782 782 782 782 783 783 783 784 784 784 784 784 784 784 784 784 784 784 784 784 784 784 784 784 784 784 784 784 785 786 786 787 787 788 788 789 789 790 790 790 790 790 790 790 790 790 790 789 789
775 776 776 777 777 778 778 778 778 779 779 779 780 780 781 781 781 781 782 782 782 782 782 782 782 782 783 783 783 783 783 784 784 784 783 783 783 783 783 783 783 783 783 783 783 783 784 784 784 785 786 787 787 787 788 788 789 789 790 790 790 790 790 790 790 790 790 789 789
775 775 776 776 777 777 778 778 778 778 779 779 779 780 780 781 781 781 781 782 781 781 782 782 782 782 782 782 782 782 783 783 783 783 783 783 783 783 783 783 783 783 783 783 783 783 783 783 784 784 785 786 786 787 787 788 788 789 789 789 789 789 789 789 789 790 790 789 789
774 775 775 776 776 777 777 777 778 778 778 779 779 779 780 780 781 781 781 781 781 781 782 782 781 781 781 781 781 782 782 782 782 783 783 783 782 782 782 782 782 782 782 782 782 782 782 783 783 784 784 785 786 786 787 787 788 788 789 789 789 789 789 789 789 789 790 790 790
774 774 775 775 775 776 776 777 777 777 778 778 779 779 779 780 780 780 781 781 781 781 781 781 781 781 781 781 781 781 781 782 782 782 782 782 782 782 782 782 782 782 782 781 782 782 782 782 783 783 784 784 785 786 786 787 787 788 788 789 789 789 789 789 789 789 790 790 790
773 773 774 774 775 775 775 776 776 777 777 778 778 779 779 779 780 780 780 780 781 781 781 781 781 781 781 781 781 781 781 781 782 782 782 782 782 782 782 781 781 781 781 781 781 781 782 782 782 783 784 784 784 785 785 786 786 787 787 788 788 788 788 789 789 789 790 790 790
772 772 773 773 774 774 775 775 775 776 776 777 778 778 779 779 779 780 780 780 780 781 781 781 781 781 781 781 781 781 781 781 781 781 782 782 782 781 781 781 781 781 781 781 781 781 782 782 782 783 783 784 784 784 785 785 785 786 787 787 787 788 788 788 789 789 789 790 790
770 771 771 772 773 773 774 774 775 775 776 776 777 778 778 779 779 779 780 780 780 780 780 781 781 781 780 780 780 780 781 781 781 781 781 781 781 781 781 781 781 781 781 781 781 781 781 782 782 783 783 783 784 784 784 784 785 785 786 786 786 787 787 788 788 789 789 789 790
769 769 770 771 772 772 773 774 774 774 775 776 776 777 777 778 779 779 780 780 780 780 780 780 780 780 780 780 780 780 780 780 780 780 781 781 781 781 781 781 781 781 781 781 781 781 781 782 782 782 783 783 783 784 784 784 784 784 785 785 786 786 786 787 788 788 789 789 789
767 768 769 770 770 771 772 773 773 774 774 775 775 776 777 777 778 779 779 779 780 780 780 780 780 780 780 780 780 780 780 780 780 780 780 781 781 781 781 781 781 781 781 781 781 781 781 782 782 782 783 783 783 783 783 783 784 784 784 784 785 785 785 786 787 787 788 788 789
766 767 768 769 769 770 771 772 772 773 773 774 774 775 776 776 777 778 779 779 779 780 780 780 780 780 780 780 780 780 780 780 780 780 780 780 780 781 781 781 781 781 781 781 781 781 781 781 782 782 782 782 783 783 783 783 783 783 784 784 784 784 785 785 786 787 787 788 788
764 765 766 767 768 769 770 770 771 772 772 773 774 774 775 775 776 777 778 778 779 779 779 780 780 779 779 779 779 779 779 780 780 780 780 780 780 780 780 780 780 781 781 780 780 781 781 781 781 781 782 782 782 782 782 783 783 783 783 784 784 784 784 785 785 786 787 787 788
763 764 765 766 767 768 769 769 770 770 771 772 773 774 774 775 775 776 777 777 778 778 779 779 779 779 779 779 779 779 779 779 779 779 779 780 780 780 780 780 780 780 780 780 780 780 780 780 781 781 781 781 782 782 782 782 783 783 783 783 783 784 784 784 785 786 786 787 788
761 762 763 764 765 766 767 768 769 769 770 771 772 773 773 774 774 775 776 776 777 778 778 778 778 778 779 779 779 779 779 779 779 779 779 779 779 779 779 779 780 780 779 779 779 780 780 780 780 781 781 781 781 782 782 782 782 782 783 783 783 784 784 784 785 786 786 787 787
759 760 761 762 763 764 765 766 767 768 769 770 771 772 772 773 774 774 775 776 776 777 777 777 778 778 778 778 778 778 778 778 778 778 778 779 779 779 779 779 779 779 779 779 779 779 780 780 780 780 780 781 781 782 782 782 782 782 782 783 783 783 784 784 785 785 786 787 787
757 758 759 761 762 763 764 765 766 767 768 769 769 770 771 772 773 774 774 775 775 776 776 777 777 777 777 777 777 777 777 777 778 778 778 778 778 778 779 779 779 779 779 779 779 779 780 780 780 780 780 781 781 781 781 782 782 782 782 782 783 783 784 784 784 785 786 786 787
755 756 758 759 760 761 762 764 764 765 766 768 769 769 770 771 772 773 773 774 774 775 776 776 776 776 777 777 776 776 776 777 777 777 777 777 777 778 778 778 778 778 778 778 779 779 779 780 780 780 780 780 780 781 781 781 781 782 782 782 782 783 783 784 784 785 785 786 787
753 754 755 757 758 759 760 761 763 764 765 766 767 768 769 770 770 771 772 773 774 774 774 775 775 776 776 776 776 776 776 776 776 776 776 776 777 777 777 777 778 778 778 778 778 779 779 779 779 779 779 780 780 780 780 781 781 781 782 782 782 783 783 784 784 785 785 786 787
751 752 754 755 756 757 759 759 761 762 764 765 766 767 768 769 769 770 771 772 772 773 774 774 774 775 775 775 775 775 775 775 775 775 775 775 776 776 776 776 777 777 777 778 778 778 779 779 779 779 779 779 779 780 780 780 781 781 781 782 782 783 783 784 784 785 785 786 787
749 750 752 753 754 755 757 758 759 761 762 763 764 765 766 767 768 769 770 770 771 772 773 773 774 774 774 774 775 775 775 775 775 775 775 775 775 775 775 775 776 776 776 777 778 778 779 779 779 779 779 779 779 779 779 780 780 781 781 782 782 783 783 784 785 785 786 786 787
747 749 750 751 752 754 755 757 758 759 760 762 763 764 765 766 767 768 769 769 770 771 771 772 772 773 774 774 774 774 774 774 774 774 774 774 774 774 774 775 775 775 776 776 777 778 778 779 779 779 779 779 779 779 779 780 780 781 781 782 782 783 783 784 785 785 786 786 787
745 747 748 749 751 752 754 755 756 757 759 760 761 762 764 765 766 767 767 768 769 769 770 770 771 772 772 773 773 773 774 774 774 774 774 774 774 774 774 774 774 775 775 776 776 777 778 778 778 778 779 779 779 779 779 779 780 781 781 782 782 783 783 784 784 785 785 786 786
744 745 746 748 749 750 752 753 754 756 757 758 759 761 762 763 764 765 766 766 767 768 769 769 770 771 771 772 772 773 773 773 773 774 774 774 774 774 774 774 774 774 775 775 776 777 778 778 778 778 778 778 779 779 779 780 780 781 782 782 783 783 784 784 784 784 785 786 786
742 743 744 746 748 749 750 751 753 754 755 756 758 759 760 761 762 764 764 765 766 767 767 768 769 770 770 771 771 772 772 772 773 773 773 773 773 774 774 774 774 774 775 775 775 776 777 778 777 778 778 778 779 779 779 780 780 781 782 783 783 784 784 784 784 785 785 786 786
740 741 743 744 746 747 748 749 751 752 753 754 756 757 758 759 761 762 763 764 765 765 766 767 768 768 769 769 770 770 771 772 772 772 773 773 773 773 774 774 774 774 774 775 775 776 777 777 777 777 777 778 779 779 779 780 780 781 782 783 783 784 784 784 785 785 786 786 787
738 740 741 743 744 745 747 748 749 750 751 753 754 755 757 758 759 761 762 763 764 764 765 765 766 767 768 768 769 769 770 771 771 772 772 772 773 773 774 774 774 774 774 774 774 775 776 777 776 776 777 778 779 779 779 780 781 781 782 783 783 784 784 785 785 786 786 787 787
737 738 739 741 742 744 745 746 747 748 749 751 753 754 755 757 758 759 760 761 762 763 764 764 765 766 767 768 768 769 769 770 770 771 771 772 772 773 773 774 774 774 774 774 774 775 776 777 776 776 777 778 778 779 779 780 781 781 782 783 783 784 784 785 785 786 787 787 788
735 736 738 739 740 742 743 744 745 746 748 749 751 753 754 755 756 758 759 760 761 762 763 763 764 765 766 767 767 768 769 769 769 770 771 771 772 772 772 773 774 774 774 774 774 774 775 776 776 776 777 777 778 779 779 780 781 781 782 783 783 784 784 785 786 786 787 788 789
733 735 736 738 739 740 741 742 743 745 746 748 749 751 752 754 755 756 758 759 759 760 762 763 763 764 765 766 766 767 767 768 769 769 770 770 771 771 772 772 773 774 774 774 774 774 774 776 776 776 776 777 778 779 779 780 781 782 782 783 783 784 784 785 786 787 787 788 789